Weather History for Greenville, MS

Change the Weather History Date:

Friday, September 14, 2012

  Actual Average Record
Temperature  
Mean Temperature 78 °F 76 °F  
Max Temperature 87 °F 87 °F 103 °F (1980)
Min Temperature 68 °F 64 °F 50 °F (1940)
Degree Days  
Heating Degree Days 0 0  
Month to date heating degree days 0 0  
Since 1 July heating degree days 0 0  
Cooling Degree Days 13 11  
Month to date cooling degree days 217 176  
Year to date cooling degree days 2256 1955  
Growing Degree Days 27 (Base 50)    
Moisture  
Dew Point 67 °F    
Average Humidity 71    
Maximum Humidity 93    
Minimum Humidity 48    
Precipitation  
Precipitation 0.00 in 0.11 in 1.14 in (1963)
Month to date precipitation 0.54 1.46  
Year to date precipitation 27.61 36.02  
Sea Level Pressure  
Sea Level Pressure 30.17 in    
Wind  
Wind Speed 4 mph (East)    
Max Wind Speed 10 mph    
Max Gust Speed 20 mph    
Visibility 10 miles    
Events      
T = Trace of Precipitation, MM = Missing Value Source: NWS Daily Summary

Daily Weather History Graph

Daily Weather History Graph

Search for Another Location

Airport:

Trip Planner

Search our weather history database for the weather conditions in past years. The results will help you decide how hot, cold, wet, or windy it might be!

Date:

Astronomy

Sep. 14, 2012 Rise Set
Actual Time 6:47 AM CDT 7:11 PM CDT
Civil Twilight 6:22 AM CDT 7:35 PM CDT
Nautical Twilight 5:52 AM CDT 8:05 PM CDT
Astronomical Twilight 5:23 AM CDT 8:34 PM CDT
Moon 5:13 AM CDT (9/14) 6:07 PM CDT (9/14)
Length of Visible Light 13h 13m
Length of Day
12h 23m
Waning Crescent, 2% of the Moon is Illuminated
Sep 14
Waning Crescent
Sep 15
New
Sep 22
First Quarter
Sep 29
Full
Oct 8
Last Quarter

Hourly Weather History & Observations

Time (CDT) Temp. Heat Index Dew Point Humidity Pressure Visibility Wind Dir Wind Speed Gust Speed Precip Events Conditions
12:53 AM 71.1 °F - 68.0 °F 90% 30.18 in 10.0 mi East 3.5 mph - N/A   Mostly Cloudy
1:53 AM 72.0 °F - 68.0 °F 87% 30.17 in 10.0 mi East 3.5 mph - N/A   Overcast
2:53 AM 71.1 °F - 66.9 °F 87% 30.15 in 10.0 mi ESE 4.6 mph - N/A   Clear
3:53 AM 70.0 °F - 66.9 °F 90% 30.16 in 10.0 mi Calm Calm - N/A   Mostly Cloudy
4:53 AM 68.0 °F - 66.0 °F 93% 30.16 in 10.0 mi ESE 5.8 mph - N/A   Clear
5:53 AM 70.0 °F - 66.9 °F 90% 30.17 in 10.0 mi Calm Calm - N/A   Clear
6:53 AM 69.1 °F - 66.9 °F 93% 30.18 in 9.0 mi ESE 4.6 mph - N/A   Mostly Cloudy
7:53 AM 71.6 °F - 68.0 °F 88% 30.17 in 9.0 mi SE 5.8 mph - N/A   Clear
8:53 AM 77.0 °F - 68.0 °F 74% 30.19 in 10.0 mi SE 6.9 mph - N/A   Clear
9:53 AM 81.0 °F 83.3 °F 66.9 °F 62% 30.20 in 10.0 mi South 6.9 mph - N/A   Clear
10:53 AM 82.9 °F 85.4 °F 66.9 °F 58% 30.21 in 10.0 mi South 4.6 mph - N/A   Scattered Clouds
11:53 AM 84.0 °F 87.0 °F 68.0 °F 58% 30.20 in 10.0 mi SSW 5.8 mph - N/A   Scattered Clouds
12:53 PM 86.0 °F 87.3 °F 64.0 °F 48% 30.18 in 10.0 mi East 6.9 mph - N/A   Mostly Cloudy
1:53 PM 86.0 °F 87.3 °F 64.0 °F 48% 30.17 in 10.0 mi ESE 3.5 mph - N/A   Overcast
2:53 PM 86.0 °F 87.3 °F 64.0 °F 48% 30.14 in 10.0 mi Variable 3.5 mph - N/A   Overcast
3:53 PM 82.9 °F 86.5 °F 69.1 °F 63% 30.13 in 10.0 mi North 4.6 mph - N/A   Overcast
4:53 PM 82.0 °F 85.5 °F 69.1 °F 65% 30.13 in 10.0 mi NNW 4.6 mph - N/A   Overcast
5:53 PM 81.0 °F 84.1 °F 69.1 °F 67% 30.12 in 10.0 mi NNW 4.6 mph - N/A   Overcast
6:53 PM 80.1 °F 82.9 °F 69.1 °F 69% 30.13 in 10.0 mi North 5.8 mph - N/A   Overcast
7:53 PM 78.1 °F - 70.0 °F 76% 30.14 in 10.0 mi North 5.8 mph - N/A   Partly Cloudy
8:53 PM 77.0 °F - 70.0 °F 79% 30.16 in 10.0 mi North 4.6 mph - N/A   Mostly Cloudy
9:53 PM 77.0 °F - 69.1 °F 76% 30.18 in 9.0 mi NE 5.8 mph - N/A   Mostly Cloudy
10:53 PM 75.9 °F - 68.0 °F 76% 30.19 in 10.0 mi ENE 3.5 mph - N/A   Clear
11:53 PM 75.0 °F - 66.9 °F 76% 30.19 in 10.0 mi Calm Calm - N/A   Overcast